FIN31 EFHK-CYYZ

Flight info

Callsign FIN31
Flight time N/A
Altitude 38000
Route NEPEK Y357 EVLIT DCT TOGMI DCT OSLAV DCT XEBIL DCT ABADA/M081F380 DCT 65N007W 65N019W DCT 6430N DCT 5950N/M080F400 DCT ROSVO/N0455F400 IMEBA9
Aircraft A333/H-SDE3GHIJ2J3J5M1RVWXY/LB2D1

Departure

Time 2026-05-04 12:50
Airport Helsinki Vantaa Airport (EFHK)

Arrival

Time N/A
Airport Toronto Pearson International Airport (CYYZ)
Time Latitude Longitude Altitude Speed Heading
2026-05-04 12:23 60.31413 24.95513 165 ft 0 kts 137°
2026-05-04 12:25 60.31412 24.95513 165 ft 0 kts 137°
2026-05-04 12:25 60.31413 24.95513 165 ft 0 kts 137°
2026-05-04 12:40 60.31414 24.95511 165 ft 2 kts 137°
2026-05-04 12:40 60.31433 24.95476 165 ft 4 kts 137°
2026-05-04 12:40 60.31449 24.95445 165 ft 2 kts 139°
2026-05-04 12:41 60.31464 24.95409 165 ft 4 kts 97°
2026-05-04 12:41 60.31458 24.95369 165 ft 3 kts 47°
2026-05-04 12:41 60.31440 24.95328 165 ft 4 kts 47°
2026-05-04 12:41 60.31422 24.95288 165 ft 4 kts 47°
2026-05-04 12:42 60.31414 24.95269 165 ft 0 kts 47°
2026-05-04 12:44 60.31416 24.95274 165 ft 1 kts 47°
2026-05-04 12:44 60.31422 24.95288 165 ft 3 kts 47°
2026-05-04 12:45 60.31445 24.95337 165 ft 7 kts 47°
2026-05-04 12:45 60.31483 24.95421 165 ft 10 kts 47°
2026-05-04 12:45 60.31536 24.95538 165 ft 13 kts 48°
2026-05-04 12:45 60.31607 24.95660 165 ft 14 kts 14°
2026-05-04 12:46 60.31682 24.95577 165 ft 13 kts 316°
2026-05-04 12:46 60.31733 24.95554 165 ft 8 kts 17°
2026-05-04 12:46 60.31791 24.95654 165 ft 14 kts 47°
2026-05-04 12:46 60.31865 24.95824 165 ft 19 kts 50°
2026-05-04 12:47 60.31961 24.95953 165 ft 12 kts 349°
2026-05-04 12:47 60.32021 24.95854 166 ft 10 kts 314°
2026-05-04 12:47 60.32077 24.95755 166 ft 14 kts 319°
2026-05-04 12:47 60.32171 24.95589 165 ft 21 kts 317°
2026-05-04 12:48 60.32294 24.95351 165 ft 27 kts 317°
2026-05-04 12:48 60.32475 24.95187 165 ft 31 kts 342°
2026-05-04 12:48 60.32696 24.95042 165 ft 35 kts 341°
2026-05-04 12:48 60.32926 24.94858 165 ft 35 kts 321°
2026-05-04 12:49 60.33092 24.94540 170 ft 25 kts 315°
2026-05-04 12:49 60.33114 24.94389 176 ft 8 kts 236°
2026-05-04 12:49 60.33095 24.94347 178 ft 7 kts 228°
2026-05-04 12:49 60.32955 24.94036 181 ft 60 kts 228°
2026-05-04 12:50 60.32537 24.93120 170 ft 116 kts 227°
2026-05-04 12:50 60.31888 24.91691 172 ft 160 kts 225°
2026-05-04 12:50 60.31102 24.90011 647 ft 165 kts 227°
2026-05-04 12:50 60.30293 24.88367 1290 ft 166 kts 230°
2026-05-04 12:51 60.29762 24.86310 1929 ft 168 kts 260°
2026-05-04 12:51 60.29896 24.83912 2252 ft 182 kts 292°
2026-05-04 12:51 60.30541 24.81637 2455 ft 198 kts 300°
2026-05-04 12:51 60.31281 24.79083 2565 ft 223 kts 299°
2026-05-04 12:52 60.32081 24.76222 2761 ft 248 kts 298°
2026-05-04 12:52 60.32952 24.73084 3266 ft 257 kts 298°
2026-05-04 12:52 60.33809 24.69942 3977 ft 257 kts 297°
2026-05-04 12:52 60.34653 24.66759 4639 ft 260 kts 295°
2026-05-04 12:53 60.35570 24.63584 5399 ft 260 kts 305°
2026-05-04 12:53 60.36939 24.61234 6222 ft 264 kts 328°
2026-05-04 12:53 60.38735 24.60211 6890 ft 274 kts 346°
2026-05-04 12:53 60.40643 24.59667 7449 ft 282 kts 347°
2026-05-04 12:54 60.42635 24.59168 7996 ft 291 kts 348°
2026-05-04 12:54 60.44660 24.58680 8621 ft 296 kts 346°
2026-05-04 12:54 60.46680 24.58066 9390 ft 294 kts 343°
2026-05-04 12:54 60.48712 24.57329 9974 ft 301 kts 343°
2026-05-04 12:55 60.50836 24.56547 10241 ft 318 kts 343°
2026-05-04 12:55 60.53049 24.55756 10485 ft 334 kts 343°
2026-05-04 12:55 60.55402 24.54938 10749 ft 350 kts 344°
2026-05-04 12:55 60.57839 24.54108 11233 ft 357 kts 345°
2026-05-04 12:56 60.60305 24.53279 11818 ft 361 kts 345°
2026-05-04 12:56 60.61934 24.52582 12183 ft 360 kts 338°
2026-05-04 12:56 60.64911 24.49762 12904 ft 352 kts 318°
2026-05-04 12:56 60.66106 24.47556 13290 ft 346 kts 306°
2026-05-04 12:57 60.67955 24.42265 14037 ft 344 kts 296°
2026-05-04 12:57 60.68743 24.39423 14386 ft 345 kts 293°
2026-05-04 12:57 60.70175 24.33589 15089 ft 346 kts 290°
2026-05-04 12:57 60.70861 24.30631 15436 ft 347 kts 290°
2026-05-04 12:58 60.71900 24.26125 15984 ft 349 kts 290°
2026-05-04 12:58 60.72948 24.21637 16503 ft 351 kts 290°
2026-05-04 12:58 60.74016 24.17145 17017 ft 353 kts 290°
2026-05-04 12:58 60.75099 24.12652 17527 ft 356 kts 291°
2026-05-04 12:59 60.76212 24.08077 18016 ft 358 kts 291°
2026-05-04 12:59 60.77322 24.03532 18420 ft 361 kts 291°
2026-05-04 12:59 60.78442 23.98947 18833 ft 363 kts 291°
2026-05-04 12:59 60.79579 23.94282 19253 ft 365 kts 290°
2026-05-04 13:00 60.80709 23.89636 19679 ft 368 kts 291°
2026-05-04 13:00 60.81846 23.84944 20086 ft 370 kts 290°
2026-05-04 13:00 60.83003 23.80161 20489 ft 372 kts 290°
2026-05-04 13:00 60.84143 23.75435 20911 ft 374 kts 290°
2026-05-04 13:01 60.85302 23.70618 21336 ft 376 kts 290°
2026-05-04 13:01 60.86457 23.65807 21729 ft 378 kts 290°
2026-05-04 13:01 60.87610 23.60989 22121 ft 380 kts 290°
2026-05-04 13:01 60.88777 23.56108 22484 ft 382 kts 290°
2026-05-04 13:02 60.89957 23.51156 22864 ft 384 kts 290°
2026-05-04 13:02 60.91128 23.46234 23224 ft 386 kts 289°
2026-05-04 13:02 60.92308 23.41263 23530 ft 388 kts 289°
2026-05-04 13:02 60.93486 23.36289 23825 ft 390 kts 289°
2026-05-04 13:03 60.94680 23.31237 24170 ft 391 kts 289°
2026-05-04 13:03 60.95865 23.26210 24467 ft 393 kts 289°
2026-05-04 13:03 60.97061 23.21125 24768 ft 395 kts 289°
2026-05-04 13:03 60.98251 23.16053 25073 ft 396 kts 289°
2026-05-04 13:04 60.99456 23.10905 25359 ft 398 kts 289°
2026-05-04 13:04 61.00650 23.05791 25637 ft 400 kts 289°
2026-05-04 13:04 61.01859 23.00600 25916 ft 401 kts 289°
2026-05-04 13:04 61.03072 22.95379 26197 ft 403 kts 289°
2026-05-04 13:05 61.04273 22.90202 26519 ft 404 kts 289°
2026-05-04 13:05 61.05494 22.84921 26831 ft 406 kts 289°
2026-05-04 13:05 61.06703 22.79676 27144 ft 408 kts 289°
2026-05-04 13:05 61.07919 22.74390 27410 ft 410 kts 288°
2026-05-04 13:06 61.09144 22.69052 27729 ft 411 kts 288°
2026-05-04 13:06 61.10368 22.63709 27984 ft 413 kts 288°
2026-05-04 13:06 61.11591 22.58351 28216 ft 414 kts 288°
2026-05-04 13:06 61.12822 22.52950 28476 ft 416 kts 288°
2026-05-04 13:07 61.14064 22.47485 28736 ft 418 kts 288°
2026-05-04 13:07 61.15294 22.42063 28968 ft 419 kts 288°
2026-05-04 13:07 61.16525 22.36614 29205 ft 421 kts 288°
2026-05-04 13:07 61.17775 22.31074 29452 ft 422 kts 288°
2026-05-04 13:08 61.19014 22.25564 29682 ft 424 kts 288°
2026-05-04 13:08 61.20252 22.20046 29890 ft 425 kts 288°
2026-05-04 13:08 61.21508 22.14433 30086 ft 426 kts 288°
2026-05-04 13:08 61.22746 22.08885 30324 ft 428 kts 288°
2026-05-04 13:09 61.24009 22.03208 30483 ft 430 kts 288°
2026-05-04 13:09 61.25255 21.97597 30675 ft 431 kts 288°
2026-05-04 13:09 61.26517 21.91898 30854 ft 433 kts 288°
2026-05-04 13:09 61.27763 21.86255 31055 ft 433 kts 288°
2026-05-04 13:10 61.29029 21.80513 31320 ft 433 kts 288°
2026-05-04 13:10 61.30272 21.74859 31583 ft 432 kts 288°
2026-05-04 13:10 61.31514 21.69193 31837 ft 431 kts 288°
2026-05-04 13:10 61.32753 21.63523 32078 ft 431 kts 288°
2026-05-04 13:11 61.34000 21.57798 32304 ft 431 kts 288°
2026-05-04 13:11 61.35229 21.52140 32524 ft 431 kts 288°
2026-05-04 13:11 61.36453 21.46488 32780 ft 431 kts 288°
2026-05-04 13:11 61.37695 21.40740 33025 ft 430 kts 288°
2026-05-04 13:12 61.38907 21.35114 33273 ft 429 kts 288°
2026-05-04 13:12 61.40137 21.29392 33470 ft 429 kts 288°
2026-05-04 13:12 61.41342 21.23768 33673 ft 429 kts 288°
2026-05-04 13:12 61.42570 21.18018 33821 ft 429 kts 288°
2026-05-04 13:13 61.43770 21.12386 33962 ft 430 kts 288°
2026-05-04 13:13 61.44989 21.06648 34092 ft 430 kts 288°
2026-05-04 13:13 61.46199 21.00939 34229 ft 431 kts 288°
2026-05-04 13:13 61.47407 20.95223 34353 ft 431 kts 288°
2026-05-04 13:14 61.48626 20.89443 34487 ft 431 kts 288°
2026-05-04 13:14 61.49825 20.83738 34638 ft 431 kts 288°
2026-05-04 13:14 61.51040 20.77943 34771 ft 431 kts 288°
2026-05-04 13:14 61.52242 20.72196 34889 ft 432 kts 288°
2026-05-04 13:15 61.53433 20.66479 35021 ft 432 kts 288°
2026-05-04 13:15 61.54635 20.60699 35132 ft 432 kts 288°
2026-05-04 13:15 61.55829 20.54937 35257 ft 433 kts 288°
2026-05-04 13:15 61.57032 20.49122 35380 ft 433 kts 288°
2026-05-04 13:16 61.58235 20.43284 35484 ft 433 kts 288°
2026-05-04 13:16 61.59420 20.37521 35617 ft 433 kts 288°
2026-05-04 13:16 61.60619 20.31669 35724 ft 434 kts 288°
2026-05-04 13:16 61.61804 20.25873 35826 ft 434 kts 288°
2026-05-04 13:17 61.62980 20.20099 35975 ft 434 kts 288°
2026-05-04 13:17 61.64174 20.14223 36086 ft 435 kts 288°
2026-05-04 13:17 61.65353 20.08409 36178 ft 435 kts 288°
2026-05-04 13:17 61.66548 20.02493 36311 ft 435 kts 288°
2026-05-04 13:18 61.67724 19.96658 36400 ft 436 kts 288°
2026-05-04 13:18 61.70080 19.84910 36586 ft 437 kts 288°
2026-05-04 13:18 61.71264 19.78985 36697 ft 437 kts 288°
2026-05-04 13:19 61.72435 19.73107 36800 ft 437 kts 288°
2026-05-04 13:19 61.74774 19.61309 36970 ft 437 kts 288°
2026-05-04 13:19 61.75958 19.55333 37117 ft 438 kts 289°
2026-05-04 13:20 61.77220 19.49521 37214 ft 440 kts 291°
2026-05-04 13:20 61.80009 19.37975 37354 ft 442 kts 292°
2026-05-04 13:21 61.82867 19.26474 37535 ft 442 kts 292°
2026-05-04 13:21 61.85693 19.14908 37601 ft 442 kts 292°
2026-05-04 13:22 61.88475 19.03340 37603 ft 440 kts 292°
2026-05-04 13:22 61.91233 18.91759 37625 ft 440 kts 292°
2026-05-04 13:23 61.93977 18.80171 37602 ft 440 kts 292°
2026-05-04 13:23 61.96730 18.68493 37586 ft 440 kts 291°
2026-05-04 13:24 61.99450 18.56897 37587 ft 440 kts 291°
2026-05-04 13:24 62.02178 18.45205 37581 ft 440 kts 291°
2026-05-04 13:25 62.06225 18.27741 37599 ft 440 kts 291°
2026-05-04 13:25 62.08922 18.16024 37587 ft 438 kts 291°
2026-05-04 13:26 62.11601 18.04324 37587 ft 438 kts 291°
2026-05-04 13:26 62.14264 17.92623 37587 ft 438 kts 291°
2026-05-04 13:27 62.16909 17.80939 37587 ft 438 kts 291°
2026-05-04 13:27 62.19550 17.69212 37587 ft 438 kts 291°
2026-05-04 13:28 62.22184 17.57448 37598 ft 438 kts 291°
2026-05-04 13:28 62.24805 17.45682 37595 ft 438 kts 291°
2026-05-04 13:29 62.27430 17.33826 37605 ft 438 kts 291°
2026-05-04 13:29 62.30027 17.22037 37600 ft 438 kts 290°
2026-05-04 13:30 62.32615 17.10218 37614 ft 437 kts 290°
2026-05-04 13:30 62.35196 16.98367 37627 ft 437 kts 290°
2026-05-04 13:31 62.37769 16.86485 37610 ft 438 kts 290°
2026-05-04 13:31 62.40331 16.74593 37604 ft 438 kts 290°
2026-05-04 13:32 62.42884 16.62672 37610 ft 438 kts 290°
2026-05-04 13:32 62.45426 16.50731 37608 ft 438 kts 290°
2026-05-04 13:33 62.47960 16.38761 37619 ft 439 kts 290°
2026-05-04 13:33 62.50484 16.26765 37620 ft 438 kts 290°
2026-05-04 13:34 62.52992 16.14784 37618 ft 437 kts 290°
2026-05-04 13:34 62.55490 16.02778 37621 ft 437 kts 290°
2026-05-04 13:35 62.59214 15.84749 37622 ft 437 kts 290°
2026-05-04 13:36 62.61680 15.72722 37624 ft 437 kts 290°
2026-05-04 13:36 62.64153 15.60587 37620 ft 437 kts 289°
2026-05-04 13:37 62.66601 15.48506 37631 ft 437 kts 289°
2026-05-04 13:37 62.69041 15.36396 37631 ft 437 kts 289°
2026-05-04 13:38 62.71461 15.24311 37637 ft 437 kts 289°
2026-05-04 13:38 62.73894 15.12172 37637 ft 437 kts 289°
2026-05-04 13:39 62.76350 15.00028 37641 ft 437 kts 289°
2026-05-04 13:39 62.78809 14.87818 37641 ft 441 kts 289°
2026-05-04 13:40 62.81271 14.75505 37637 ft 445 kts 289°
2026-05-04 13:40 62.83751 14.63023 37635 ft 447 kts 289°
2026-05-04 13:41 62.86222 14.50511 37636 ft 446 kts 289°
2026-05-04 13:41 62.88667 14.38050 37634 ft 446 kts 289°
2026-05-04 13:42 62.92318 14.19292 37636 ft 446 kts 289°
2026-05-04 13:42 62.94729 14.06811 37636 ft 446 kts 289°
2026-05-04 13:43 62.97153 13.94184 37628 ft 446 kts 288°
2026-05-04 13:43 62.99550 13.81614 37635 ft 446 kts 288°
2026-05-04 13:44 63.01939 13.69007 37637 ft 446 kts 288°
2026-05-04 13:44 63.04312 13.56403 37640 ft 447 kts 289°
2026-05-04 13:45 63.06686 13.43716 37637 ft 448 kts 289°
2026-05-04 13:45 63.09040 13.31062 37641 ft 448 kts 289°
2026-05-04 13:46 63.11392 13.18329 37639 ft 448 kts 288°
2026-05-04 13:46 63.13732 13.05582 37648 ft 448 kts 288°
2026-05-04 13:47 63.16063 12.92800 37663 ft 448 kts 288°
2026-05-04 13:47 63.18386 12.79977 37650 ft 447 kts 288°
2026-05-04 13:48 63.20686 12.67200 37650 ft 446 kts 288°
2026-05-04 13:48 63.22970 12.54424 37652 ft 446 kts 288°
2026-05-04 13:49 63.25247 12.41602 37668 ft 446 kts 288°
2026-05-04 13:49 63.27508 12.28787 37658 ft 446 kts 288°
2026-05-04 13:50 63.29748 12.16008 37679 ft 446 kts 288°
2026-05-04 13:50 63.31985 12.03158 37675 ft 445 kts 288°
2026-05-04 13:51 63.34206 11.90318 37680 ft 445 kts 288°
2026-05-04 13:51 63.36425 11.77396 37679 ft 445 kts 288°
2026-05-04 13:52 63.39713 11.58093 37684 ft 445 kts 288°
2026-05-04 13:53 63.41888 11.45209 37686 ft 444 kts 288°
2026-05-04 13:53 63.44053 11.32299 37678 ft 443 kts 288°
2026-05-04 13:54 63.47259 11.13013 37688 ft 442 kts 287°
2026-05-04 13:55 63.50451 10.93615 37693 ft 442 kts 287°
2026-05-04 13:55 63.53616 10.74180 37693 ft 442 kts 287°
2026-05-04 13:56 63.55698 10.61278 37686 ft 443 kts 287°
2026-05-04 13:57 63.58820 10.41767 37688 ft 442 kts 287°
2026-05-04 13:58 63.62588 10.17934 37692 ft 442 kts 287°
2026-05-04 13:58 63.65648 9.98348 37687 ft 441 kts 287°
2026-05-04 13:59 63.67644 9.85303 37692 ft 438 kts 286°
2026-05-04 14:00 63.70504 9.65838 37688 ft 438 kts 286°
2026-05-04 14:00 63.73352 9.46220 37692 ft 438 kts 285°
2026-05-04 14:01 63.75227 9.33222 37714 ft 439 kts 286°
2026-05-04 14:02 63.78053 9.13441 37683 ft 441 kts 285°
2026-05-04 14:02 63.79925 9.00221 37680 ft 441 kts 285°
2026-05-04 14:03 63.81770 8.87080 37680 ft 441 kts 285°
2026-05-04 14:03 63.83615 8.73838 37691 ft 441 kts 285°
2026-05-04 14:04 63.86358 8.53956 37690 ft 441 kts 285°
2026-05-04 14:04 63.88177 8.40637 37694 ft 442 kts 285°
2026-05-04 14:05 63.90874 8.20694 37694 ft 442 kts 285°
2026-05-04 14:06 63.92665 8.07315 37708 ft 442 kts 285°
2026-05-04 14:06 63.94444 7.93919 37708 ft 442 kts 285°
2026-05-04 14:07 63.96212 7.80490 37719 ft 442 kts 285°
2026-05-04 14:07 63.97962 7.67092 37717 ft 442 kts 285°
2026-05-04 14:08 63.99702 7.53655 37719 ft 442 kts 284°
2026-05-04 14:08 64.01432 7.40187 37719 ft 442 kts 284°
2026-05-04 14:09 64.04000 7.19978 37727 ft 442 kts 284°
2026-05-04 14:10 64.06538 6.99743 37728 ft 442 kts 284°
2026-05-04 14:10 64.08208 6.86286 37736 ft 442 kts 284°
2026-05-04 14:11 64.09883 6.72673 37736 ft 442 kts 284°
2026-05-04 14:11 64.12351 6.52389 37743 ft 442 kts 284°
2026-05-04 14:12 64.13977 6.38879 37744 ft 442 kts 284°
2026-05-04 14:13 64.16409 6.18446 37749 ft 443 kts 284°
2026-05-04 14:13 64.18016 6.04788 37749 ft 443 kts 283°
2026-05-04 14:14 64.19601 5.91191 37760 ft 443 kts 283°
2026-05-04 14:14 64.21961 5.70719 37760 ft 443 kts 283°
2026-05-04 14:15 64.25070 5.43304 37769 ft 443 kts 283°
2026-05-04 14:16 64.27332 5.22740 37771 ft 445 kts 282°
2026-05-04 14:17 64.29460 5.01934 37776 ft 446 kts 282°
2026-05-04 14:18 64.31560 4.81026 37774 ft 446 kts 282°
2026-05-04 14:19 64.34319 4.53220 37785 ft 446 kts 282°
2026-05-04 14:19 64.35682 4.39262 37789 ft 446 kts 282°
2026-05-04 14:20 64.37031 4.25297 37786 ft 446 kts 282°
2026-05-04 14:20 64.38369 4.11294 37798 ft 446 kts 282°
2026-05-04 14:21 64.40341 3.90377 37800 ft 446 kts 281°
2026-05-04 14:21 64.41643 3.76367 37801 ft 446 kts 281°
2026-05-04 14:22 64.42933 3.62330 37802 ft 446 kts 281°
2026-05-04 14:22 64.44211 3.48273 37810 ft 446 kts 281°
2026-05-04 14:23 64.46101 3.27173 37805 ft 446 kts 281°
2026-05-04 14:24 64.47343 3.13101 37809 ft 446 kts 281°
2026-05-04 14:24 64.48570 2.99027 37808 ft 446 kts 281°
2026-05-04 14:25 64.49784 2.84953 37814 ft 446 kts 281°
2026-05-04 14:25 64.51580 2.63802 37817 ft 446 kts 281°
2026-05-04 14:26 64.52759 2.49704 37823 ft 446 kts 281°
2026-05-04 14:26 64.53931 2.35520 37817 ft 445 kts 281°
2026-05-04 14:27 64.55078 2.21453 37830 ft 445 kts 281°
2026-05-04 14:27 64.56219 2.07298 37829 ft 445 kts 280°
2026-05-04 14:28 64.57345 1.93135 37829 ft 445 kts 280°
2026-05-04 14:28 64.58458 1.78956 37833 ft 445 kts 280°
2026-05-04 14:29 64.60634 1.50691 37831 ft 445 kts 280°
2026-05-04 14:30 64.61707 1.36467 37832 ft 444 kts 280°
2026-05-04 14:31 64.63283 1.15218 37839 ft 444 kts 280°
2026-05-04 14:32 64.65341 0.86791 37840 ft 444 kts 279°
2026-05-04 14:32 64.66349 0.72573 37839 ft 444 kts 279°
2026-05-04 14:33 64.67343 0.58347 37845 ft 444 kts 279°
2026-05-04 14:33 64.68320 0.44156 37846 ft 444 kts 279°
2026-05-04 14:34 64.69288 0.29890 37850 ft 444 kts 279°
2026-05-04 14:34 64.70238 0.15681 37848 ft 444 kts 279°
2026-05-04 14:35 64.71176 0.01433 37847 ft 444 kts 279°
2026-05-04 14:35 64.72099 -0.12808 37853 ft 443 kts 279°
2026-05-04 14:36 64.73011 -0.27101 37854 ft 442 kts 279°
2026-05-04 14:36 64.73905 -0.41330 37846 ft 442 kts 279°
2026-05-04 14:37 64.74781 -0.55498 37846 ft 442 kts 278°
2026-05-04 14:37 64.75653 -0.69840 37851 ft 442 kts 278°
2026-05-04 14:38 64.76506 -0.84099 37851 ft 442 kts 278°
2026-05-04 14:38 64.77341 -0.98290 37856 ft 442 kts 278°
2026-05-04 14:39 64.78167 -1.12571 37857 ft 442 kts 278°
2026-05-04 14:39 64.78982 -1.26905 37856 ft 442 kts 278°
2026-05-04 14:40 64.80172 -1.48312 37859 ft 442 kts 278°
2026-05-04 14:40 64.80951 -1.62644 37848 ft 442 kts 278°
2026-05-04 14:41 64.81714 -1.76946 37859 ft 441 kts 278°
2026-05-04 14:42 64.83199 -2.05576 37862 ft 441 kts 277°
2026-05-04 14:42 64.83916 -2.19801 37862 ft 441 kts 277°
2026-05-04 14:43 64.84624 -2.34139 37867 ft 441 kts 277°
2026-05-04 14:43 64.85319 -2.48484 37868 ft 441 kts 277°
2026-05-04 14:44 64.85998 -2.62805 37862 ft 440 kts 277°
2026-05-04 14:44 64.86660 -2.77068 37866 ft 440 kts 277°
2026-05-04 14:45 64.87312 -2.91415 37872 ft 440 kts 277°
2026-05-04 14:45 64.87948 -3.05711 37867 ft 440 kts 277°
2026-05-04 14:46 64.88571 -3.20019 37868 ft 440 kts 277°
2026-05-04 14:46 64.89180 -3.34355 37872 ft 440 kts 276°
2026-05-04 14:47 64.89774 -3.48651 37876 ft 439 kts 276°
2026-05-04 14:47 64.90354 -3.62955 37879 ft 439 kts 276°
2026-05-04 14:48 64.90921 -3.77272 37877 ft 439 kts 276°
2026-05-04 14:48 64.91476 -3.91630 37879 ft 439 kts 276°
2026-05-04 14:49 64.92016 -4.05989 37886 ft 440 kts 276°
2026-05-04 14:49 64.92543 -4.20348 37868 ft 441 kts 276°
2026-05-04 14:50 64.93057 -4.34747 37873 ft 443 kts 276°
2026-05-04 14:50 64.93559 -4.49224 37872 ft 443 kts 276°
2026-05-04 14:51 64.94049 -4.63751 37878 ft 443 kts 275°
2026-05-04 14:51 64.94519 -4.78136 37873 ft 443 kts 275°
2026-05-04 14:52 64.94981 -4.92679 37861 ft 443 kts 275°
2026-05-04 14:52 64.95426 -5.07150 37874 ft 442 kts 275°
2026-05-04 14:53 64.95857 -5.21604 37875 ft 442 kts 275°
2026-05-04 14:53 64.96274 -5.36067 37878 ft 442 kts 275°
2026-05-04 14:54 64.96676 -5.50522 37878 ft 442 kts 275°
2026-05-04 14:54 64.97064 -5.64956 37881 ft 442 kts 275°
2026-05-04 14:55 64.97440 -5.79462 37876 ft 442 kts 275°
2026-05-04 14:55 64.97800 -5.93913 37883 ft 441 kts 275°
2026-05-04 14:56 64.98147 -6.08430 37883 ft 441 kts 274°
2026-05-04 14:56 64.98479 -6.22842 37869 ft 441 kts 274°
2026-05-04 14:57 64.98797 -6.37318 37871 ft 441 kts 274°
2026-05-04 14:57 64.99103 -6.51858 37871 ft 441 kts 274°
2026-05-04 14:58 64.99392 -6.66274 37881 ft 441 kts 274°
2026-05-04 14:58 64.99623 -6.78330 37880 ft 441 kts 274°
2026-05-04 14:59 64.99930 -6.95207 37883 ft 441 kts 274°
2026-05-04 15:00 65.00514 -7.14506 37893 ft 440 kts 277°
2026-05-04 15:00 65.01108 -7.28885 37905 ft 440 kts 277°
2026-05-04 15:01 65.01959 -7.50491 37898 ft 440 kts 276°
2026-05-04 15:01 65.02486 -7.64901 37912 ft 440 kts 276°
2026-05-04 15:02 65.02994 -7.79304 37912 ft 440 kts 276°
2026-05-04 15:02 65.03488 -7.93709 37908 ft 440 kts 276°
2026-05-04 15:03 65.03971 -8.08172 37912 ft 440 kts 276°
2026-05-04 15:03 65.04438 -8.22572 37910 ft 440 kts 276°
2026-05-04 15:04 65.04893 -8.37017 37922 ft 440 kts 276°
2026-05-04 15:04 65.05333 -8.51469 37920 ft 440 kts 276°
2026-05-04 15:05 65.05759 -8.65886 37922 ft 441 kts 276°
2026-05-04 15:05 65.06175 -8.80461 37922 ft 441 kts 276°
2026-05-04 15:06 65.06575 -8.94965 37941 ft 441 kts 275°
2026-05-04 15:07 65.07148 -9.16729 37935 ft 442 kts 275°
2026-05-04 15:07 65.07512 -9.31242 37946 ft 442 kts 275°
2026-05-04 15:08 65.07861 -9.45697 37944 ft 442 kts 275°
2026-05-04 15:08 65.08198 -9.60230 37957 ft 442 kts 275°
2026-05-04 15:09 65.08522 -9.74836 37955 ft 442 kts 275°
2026-05-04 15:09 65.08831 -9.89386 37957 ft 442 kts 275°
2026-05-04 15:10 65.09266 -10.11173 37967 ft 441 kts 275°
2026-05-04 15:11 65.09670 -10.32915 37984 ft 441 kts 274°
2026-05-04 15:11 65.09922 -10.47447 37983 ft 441 kts 274°
2026-05-04 15:12 65.10159 -10.61969 37995 ft 441 kts 274°
2026-05-04 15:12 65.10383 -10.76507 37964 ft 441 kts 274°
2026-05-04 15:13 65.10592 -10.91065 37990 ft 441 kts 274°
2026-05-04 15:13 65.10788 -11.05628 38008 ft 440 kts 274°
2026-05-04 15:14 65.10969 -11.20134 38014 ft 440 kts 274°
2026-05-04 15:14 65.11136 -11.34638 38018 ft 440 kts 274°
2026-05-04 15:15 65.11289 -11.49131 38017 ft 440 kts 274°
2026-05-04 15:15 65.11427 -11.63632 38018 ft 440 kts 274°
2026-05-04 15:16 65.11609 -11.85407 38031 ft 438 kts 273°
2026-05-04 15:17 65.11759 -12.07018 38045 ft 438 kts 273°
2026-05-04 15:17 65.11878 -12.28758 38045 ft 439 kts 273°
2026-05-04 15:18 65.11940 -12.43300 38054 ft 441 kts 273°
2026-05-04 15:19 65.12006 -12.65132 38064 ft 440 kts 273°
2026-05-04 15:19 65.12041 -12.86841 38064 ft 440 kts 273°
2026-05-04 15:20 65.12046 -13.01383 38070 ft 440 kts 272°
2026-05-04 15:20 65.12038 -13.15940 38069 ft 440 kts 272°
2026-05-04 15:21 65.12016 -13.30470 38035 ft 440 kts 272°
2026-05-04 15:22 65.11956 -13.52225 38073 ft 441 kts 272°
2026-05-04 15:22 65.11864 -13.74012 38090 ft 441 kts 272°
2026-05-04 15:23 65.11784 -13.88645 38084 ft 441 kts 272°
2026-05-04 15:23 65.11692 -14.03162 38099 ft 441 kts 272°
2026-05-04 15:24 65.11463 -14.32096 38108 ft 436 kts 272°
2026-05-04 15:25 65.11329 -14.46491 38110 ft 434 kts 272°
2026-05-04 15:26 65.11106 -14.67962 38118 ft 435 kts 272°
2026-05-04 15:26 65.10850 -14.89444 38127 ft 435 kts 271°
2026-05-04 15:27 65.10563 -15.10967 38159 ft 433 kts 271°
2026-05-04 15:28 65.10247 -15.32311 38157 ft 432 kts 271°
2026-05-04 15:29 65.09901 -15.53680 38177 ft 433 kts 271°
2026-05-04 15:30 65.08972 -16.03605 38209 ft 433 kts 271°
2026-05-04 15:31 65.08526 -16.24928 38205 ft 433 kts 270°
2026-05-04 15:32 65.07710 -16.60562 38214 ft 433 kts 270°
2026-05-04 15:34 65.06811 -16.96077 38221 ft 431 kts 270°
2026-05-04 15:34 65.06234 -17.17310 38223 ft 431 kts 270°
2026-05-04 15:35 65.05629 -17.38492 38239 ft 431 kts 270°
2026-05-04 15:36 65.04992 -17.59688 38227 ft 431 kts 270°
2026-05-04 15:36 65.04552 -17.73820 38230 ft 431 kts 269°
2026-05-04 15:37 65.04094 -17.88033 38237 ft 431 kts 269°
2026-05-04 15:37 65.03627 -18.02088 38226 ft 431 kts 269°
2026-05-04 15:38 65.03143 -18.16303 38234 ft 431 kts 269°
2026-05-04 15:38 65.02650 -18.30376 38234 ft 431 kts 269°
2026-05-04 15:39 65.02139 -18.44541 38234 ft 431 kts 269°
2026-05-04 15:40 65.01351 -18.65724 38237 ft 430 kts 269°
2026-05-04 15:40 65.00814 -18.79725 38239 ft 431 kts 269°
2026-05-04 15:41 65.00258 -18.93853 38242 ft 431 kts 269°
2026-05-04 15:41 64.99636 -19.07902 38241 ft 431 kts 267°
2026-05-04 15:42 64.98894 -19.22005 38218 ft 431 kts 266°
2026-05-04 15:42 64.98125 -19.36055 38238 ft 430 kts 266°
2026-05-04 15:43 64.97357 -19.50034 38239 ft 429 kts 266°
2026-05-04 15:43 64.96584 -19.64011 38248 ft 430 kts 266°
2026-05-04 15:44 64.95802 -19.77949 38253 ft 430 kts 266°
2026-05-04 15:44 64.95003 -19.91941 38253 ft 430 kts 266°
2026-05-04 15:45 64.94190 -20.05935 38243 ft 430 kts 266°
2026-05-04 15:45 64.93366 -20.19843 38258 ft 428 kts 266°
2026-05-04 15:46 64.92533 -20.33709 38264 ft 428 kts 266°
2026-05-04 15:46 64.91684 -20.47631 38262 ft 428 kts 266°
2026-05-04 15:47 64.90827 -20.61447 38259 ft 428 kts 265°
2026-05-04 15:47 64.89951 -20.75362 38264 ft 428 kts 265°
2026-05-04 15:48 64.89067 -20.89170 38253 ft 428 kts 265°
2026-05-04 15:48 64.87720 -21.09845 38263 ft 426 kts 265°
2026-05-04 15:49 64.86805 -21.23634 38268 ft 426 kts 265°
2026-05-04 15:49 64.85884 -21.37303 38272 ft 426 kts 264°
2026-05-04 15:50 64.84943 -21.51077 38271 ft 426 kts 264°
2026-05-04 15:50 64.83994 -21.64784 38272 ft 426 kts 264°
2026-05-04 15:51 64.83029 -21.78507 38268 ft 423 kts 264°
2026-05-04 15:51 64.82060 -21.92106 38269 ft 421 kts 264°
2026-05-04 15:52 64.81088 -22.05570 38272 ft 421 kts 264°
2026-05-04 15:52 64.80097 -22.19135 38271 ft 422 kts 263°
2026-05-04 15:53 64.79092 -22.32690 38272 ft 422 kts 263°
2026-05-04 15:53 64.78072 -22.46279 38273 ft 422 kts 263°
2026-05-04 15:54 64.77046 -22.59770 38271 ft 421 kts 263°
2026-05-04 15:54 64.76008 -22.73235 38279 ft 420 kts 263°
2026-05-04 15:55 64.74959 -22.86694 38282 ft 420 kts 263°
2026-05-04 15:55 64.73902 -23.00090 38284 ft 420 kts 263°
2026-05-04 15:56 64.72824 -23.13578 38286 ft 420 kts 263°
2026-05-04 15:56 64.71739 -23.26986 38287 ft 420 kts 262°
2026-05-04 15:57 64.70644 -23.40368 38282 ft 420 kts 262°
2026-05-04 15:57 64.69529 -23.53830 38299 ft 420 kts 262°
2026-05-04 15:58 64.68596 -23.64976 38300 ft 421 kts 262°
2026-05-04 15:58 64.67459 -23.78416 38290 ft 423 kts 262°
2026-05-04 15:59 64.66115 -23.94106 38288 ft 423 kts 262°
2026-05-04 15:59 64.65139 -24.05367 38287 ft 423 kts 262°
2026-05-04 16:00 64.63963 -24.18792 38292 ft 422 kts 261°
2026-05-04 16:00 64.62779 -24.32161 38294 ft 422 kts 261°
2026-05-04 16:01 64.61582 -24.45540 38296 ft 422 kts 261°
2026-05-04 16:01 64.60370 -24.58930 38292 ft 422 kts 261°
2026-05-04 16:02 64.59149 -24.72278 38292 ft 422 kts 261°
2026-05-04 16:03 64.57299 -24.92229 38270 ft 422 kts 261°
2026-05-04 16:03 64.56048 -25.05547 38293 ft 422 kts 261°
2026-05-04 16:04 64.54781 -25.18889 38295 ft 422 kts 261°
2026-05-04 16:04 64.52859 -25.38874 38295 ft 422 kts 261°
2026-05-04 16:05 64.51572 -25.52085 38292 ft 422 kts 260°
2026-05-04 16:06 64.49608 -25.71991 38292 ft 422 kts 260°
2026-05-04 16:07 64.46940 -25.98565 38295 ft 422 kts 260°
2026-05-04 16:08 64.44238 -26.24948 38295 ft 422 kts 260°
2026-05-04 16:09 64.40785 -26.57947 38293 ft 424 kts 259°
2026-05-04 16:10 64.37954 -26.84425 38292 ft 425 kts 259°
2026-05-04 16:11 64.35069 -27.10906 38287 ft 425 kts 259°
2026-05-04 16:12 64.30646 -27.50585 38277 ft 428 kts 259°
2026-05-04 16:13 64.27633 -27.76994 38281 ft 426 kts 258°
2026-05-04 16:14 64.24574 -28.03348 38247 ft 426 kts 258°
2026-05-04 16:16 64.20681 -28.36227 38268 ft 427 kts 258°
2026-05-04 16:17 64.16710 -28.69039 38260 ft 427 kts 258°
2026-05-04 16:18 64.13489 -28.95155 38259 ft 428 kts 257°
2026-05-04 16:19 64.09372 -29.27912 38262 ft 428 kts 257°
2026-05-04 16:20 64.05200 -29.60435 38255 ft 428 kts 257°
2026-05-04 16:22 64.00938 -29.92990 38268 ft 429 kts 256°
2026-05-04 16:23 63.95308 -30.31682 38237 ft 430 kts 254°
2026-05-04 16:25 63.89448 -30.70212 38287 ft 431 kts 254°
2026-05-04 16:26 63.82475 -31.15113 38285 ft 433 kts 253°
2026-05-04 16:28 63.77386 -31.47188 38288 ft 434 kts 253°
2026-05-04 16:29 63.70154 -31.91828 38298 ft 434 kts 252°
2026-05-04 16:31 63.64883 -32.23699 38297 ft 434 kts 252°
2026-05-04 16:32 63.58471 -32.61756 38299 ft 434 kts 252°
2026-05-04 16:33 63.54143 -32.87015 38298 ft 434 kts 251°
2026-05-04 16:34 63.50863 -33.05937 38303 ft 435 kts 251°
2026-05-04 16:35 63.44216 -33.43725 38300 ft 435 kts 251°
2026-05-04 16:36 63.40870 -33.62464 38302 ft 435 kts 251°
2026-05-04 16:37 63.37492 -33.81209 38299 ft 435 kts 251°
2026-05-04 16:38 63.32943 -34.06168 38293 ft 435 kts 250°
2026-05-04 16:39 63.27187 -34.37296 38293 ft 435 kts 250°
2026-05-04 16:40 63.22552 -34.62017 38272 ft 435 kts 250°
2026-05-04 16:41 63.16673 -34.92935 38289 ft 435 kts 250°
2026-05-04 16:43 63.10732 -35.23695 38283 ft 434 kts 249°
2026-05-04 16:43 63.07190 -35.41804 38279 ft 426 kts 249°
2026-05-04 16:45 63.00076 -35.77731 38276 ft 427 kts 249°
2026-05-04 16:46 62.94087 -36.07480 38272 ft 427 kts 249°
2026-05-04 16:47 62.89242 -36.31240 38263 ft 427 kts 249°
2026-05-04 16:48 62.84351 -36.54947 38268 ft 427 kts 249°
2026-05-04 16:49 62.79426 -36.78548 38257 ft 427 kts 249°
2026-05-04 16:50 62.74462 -37.02065 38255 ft 427 kts 248°
2026-05-04 16:51 62.70717 -37.19636 38252 ft 427 kts 248°
2026-05-04 16:52 62.65678 -37.43047 38254 ft 426 kts 248°
2026-05-04 16:53 62.61883 -37.60508 38249 ft 426 kts 248°
2026-05-04 16:54 62.56793 -37.83708 38250 ft 426 kts 248°
2026-05-04 16:55 62.49065 -38.18443 38246 ft 427 kts 248°
2026-05-04 16:56 62.42578 -38.47175 38243 ft 427 kts 248°
2026-05-04 16:57 62.38648 -38.64394 38238 ft 427 kts 248°
2026-05-04 16:58 62.33368 -38.87312 38238 ft 428 kts 248°